Theta_e
288 288 287 287 287 286 286 286 286 286 286 286 286 286 286 286 286 285 285 286 286 286 287 287 288 287 287 286 284 282 282 281 281 280 279 279 279 279 279 279 281 282
288 287 287 287 287 286 286 286 286 286 286 286 285 285 285 285 285 285 285 286 286 287 287 287 287 287 286 285 283 281 280 280 281 280 279 279 279 278 278 279 280 282
287 287 287 286 286 286 286 286 286 285 285 285 285 285 285 285 285 285 285 286 286 287 287 287 287 287 285 283 281 280 280 280 280 279 278 278 278 277 278 278 279 281
287 287 287 286 286 286 286 286 286 285 285 285 285 284 284 284 284 285 285 286 286 286 287 287 286 285 283 281 279 279 279 279 279 278 277 277 277 276 277 278 279 280
287 287 286 286 286 286 286 285 285 285 285 284 284 284 284 284 284 285 285 285 286 286 286 286 285 284 280 278 278 278 279 279 278 276 276 276 277 277 277 278 278 280
287 286 286 286 286 286 285 285 285 284 284 283 283 283 284 284 284 284 285 285 285 286 286 285 284 282 279 276 277 277 277 277 276 275 275 275 276 277 277 278 278 279
286 286 286 286 286 285 285 285 284 283 283 283 283 283 283 283 284 284 284 285 285 285 285 284 282 280 278 275 275 275 275 274 274 274 274 274 275 276 277 277 277 279
286 286 286 285 285 285 284 284 283 283 283 283 283 283 283 283 284 284 284 284 285 284 284 283 280 277 275 273 273 273 272 272 273 273 273 274 275 276 276 277 277 279
286 286 285 285 285 284 284 283 283 282 282 282 282 282 282 283 283 284 284 284 284 283 282 281 278 275 273 272 271 271 271 271 272 273 273 274 275 276 277 277 277 279
286 285 285 285 284 284 283 283 282 282 282 282 282 282 282 283 283 283 283 283 283 282 280 278 276 274 273 272 271 271 271 271 271 272 273 274 274 275 277 278 278 279
285 285 285 284 284 283 283 283 282 282 281 281 281 282 282 283 283 283 283 282 281 280 277 275 274 274 273 273 271 271 271 271 271 272 272 273 273 275 276 277 278 279
285 285 284 284 284 283 283 283 282 281 281 281 281 282 282 283 283 283 282 281 280 278 275 274 274 274 274 273 273 272 272 272 272 272 272 272 273 274 275 276 277 278
285 285 284 284 284 283 283 282 282 281 280 281 281 281 282 283 283 283 282 281 278 276 275 275 274 274 275 274 274 273 273 273 273 272 272 272 272 273 274 275 276 277
285 285 284 284 283 283 282 282 282 281 280 280 281 282 282 282 282 282 281 280 278 276 275 275 275 275 275 275 275 275 274 273 273 273 273 272 272 273 275 276 277 278
285 284 284 283 283 282 282 282 281 280 280 280 281 282 282 282 282 281 280 280 278 276 275 275 276 276 276 276 276 275 274 273 273 273 274 274 273 274 275 276 278 279
284 284 283 283 282 282 282 281 281 280 279 280 281 282 282 282 281 281 279 278 276 274 273 274 275 276 277 277 276 274 274 274 274 274 274 275 274 275 276 277 278 279
284 284 283 282 282 282 281 281 280 279 279 280 281 282 282 281 281 280 278 276 274 273 272 272 274 275 276 276 275 274 274 275 275 275 275 276 275 275 275 276 278 279
284 283 283 282 282 281 280 280 279 279 279 281 281 282 281 281 279 278 276 275 274 273 273 273 274 275 275 275 274 274 275 275 276 276 277 277 276 276 276 276 277 278
284 283 283 282 281 280 279 279 279 279 280 281 281 281 280 280 278 277 276 274 273 273 273 273 275 276 276 275 275 275 275 276 277 277 277 277 277 276 276 276 277 278
284 283 282 281 280 279 278 278 278 279 280 281 281 280 279 279 278 277 275 274 272 272 272 273 275 276 276 276 275 275 276 277 278 278 278 278 278 277 277 277 277 278
284 283 282 281 279 278 278 278 278 279 280 280 280 279 278 277 276 276 275 274 272 272 271 272 275 276 276 276 276 276 277 278 279 279 279 278 278 278 277 277 277 278
283 282 281 280 278 278 277 278 278 279 279 279 279 278 277 277 275 275 274 273 272 272 271 272 275 276 276 276 276 276 278 279 279 280 280 279 278 278 278 278 278 278
282 281 280 279 277 277 277 278 278 278 279 278 278 278 277 277 276 275 274 272 272 272 271 272 275 276 276 276 276 276 278 279 279 280 280 280 279 278 278 278 278 278
281 280 279 278 277 277 277 277 278 278 278 278 277 277 277 277 275 275 273 272 271 272 271 271 273 275 275 275 275 276 277 278 279 280 281 280 280 279 279 279 279 279
280 279 278 277 276 276 277 277 277 278 278 277 277 277 277 276 275 274 273 272 272 272 271 271 272 274 274 274 274 275 277 278 278 280 281 281 281 280 279 279 280 281
279 278 277 276 276 276 277 276 277 277 278 277 277 277 276 276 275 273 272 272 272 271 271 271 272 272 273 273 274 275 277 278 278 279 280 281 281 281 280 280 280 281
Wind_Speed
30 32 34 35 36 37 38 40 41 43 44 45 46 47 49 50 49 50 51 51 51 51 51 52 53 55 56 55 51 49 51 50 50 50 47 46 45 43 42 43 44 45
30 32 33 35 36 37 38 39 40 42 44 44 46 47 48 50 50 50 51 51 52 52 52 53 55 56 55 54 51 50 51 50 48 48 47 46 44 43 44 44 44 43
30 32 33 34 36 37 38 39 40 41 43 45 45 46 48 49 50 50 51 51 52 53 54 55 56 56 55 54 51 50 51 49 48 47 46 45 43 42 45 45 45 45
30 31 33 34 35 37 38 39 40 41 43 44 45 46 47 48 50 51 51 52 53 54 56 57 58 56 55 54 51 50 51 49 47 46 46 46 44 44 46 46 45 45
30 31 32 34 35 36 38 39 41 42 43 45 45 46 47 48 50 51 52 54 54 55 56 57 58 56 53 53 51 50 49 47 45 44 45 45 44 44 45 44 43 43
30 31 32 34 35 36 37 39 41 42 43 45 45 46 47 49 50 51 53 55 56 57 57 56 58 56 52 50 49 48 45 43 42 40 41 43 42 42 41 40 40 41
30 31 32 34 35 36 38 39 41 42 43 45 46 47 47 49 51 51 53 55 56 57 57 56 56 55 52 47 45 44 42 41 39 37 37 38 39 40 39 37 38 40
30 31 32 34 35 36 38 39 41 42 43 45 46 47 48 49 51 52 53 54 55 56 56 56 53 51 49 45 42 42 40 38 36 34 36 37 37 39 39 38 39 39
30 31 33 34 35 37 38 40 41 42 43 45 46 47 48 49 51 52 53 53 54 54 54 54 51 48 47 43 41 40 38 38 36 34 34 35 35 36 35 37 38 37
30 31 33 35 36 37 38 40 42 43 44 45 46 47 48 50 51 51 52 52 52 52 52 52 49 46 45 43 41 40 38 38 37 36 36 35 35 33 29 30 33 36
30 31 33 35 36 37 39 40 42 44 44 45 46 47 48 50 51 50 50 51 51 50 49 50 48 44 43 42 40 39 38 38 38 38 39 39 38 36 32 30 30 34
30 32 33 35 36 38 40 42 44 45 46 46 46 47 48 50 50 50 49 49 49 48 46 46 45 42 40 40 39 38 38 38 38 39 40 40 38 37 38 40 39 37
31 33 35 36 38 40 41 43 45 46 46 47 46 47 49 50 50 49 49 47 46 45 43 41 40 39 38 38 37 37 36 37 38 38 38 38 37 35 36 41 44 42
32 34 36 37 39 41 42 44 46 47 47 47 47 47 49 50 50 49 47 45 44 43 41 38 37 37 36 36 35 35 36 36 36 37 36 36 35 33 31 32 35 39
33 35 37 38 40 41 43 44 46 47 47 47 47 48 49 49 49 48 47 45 43 43 41 38 36 36 35 35 34 35 35 36 37 38 38 37 34 32 32 30 29 33
33 35 37 39 40 42 43 44 46 47 47 47 47 48 49 49 49 48 47 46 44 44 42 40 39 38 36 34 34 34 34 36 38 39 40 40 35 32 32 32 30 30
34 36 38 39 41 42 43 44 46 46 46 46 47 48 49 50 49 48 47 45 43 42 42 41 41 40 39 37 35 33 33 36 38 40 41 42 38 33 32 32 31 29
34 36 38 40 41 41 42 43 45 45 45 45 46 48 49 50 49 48 46 44 43 42 42 40 40 39 38 36 35 33 33 35 36 38 41 42 40 36 33 32 32 30
35 37 39 40 40 41 41 42 44 44 44 45 46 48 50 50 49 47 46 45 44 43 43 41 38 36 35 34 33 33 33 34 35 37 39 40 40 37 33 31 31 30
35 37 39 39 39 40 40 41 42 43 42 44 46 48 49 49 49 48 46 45 44 44 44 41 36 34 33 32 31 31 32 33 35 37 38 39 40 38 34 31 30 30
36 37 38 38 39 39 39 40 41 41 41 44 46 47 48 48 48 47 47 46 44 44 44 41 36 34 33 30 27 28 31 33 34 36 36 37 38 38 35 32 30 30
36 37 37 38 38 38 38 39 39 39 41 43 46 46 46 47 46 46 46 46 46 44 43 42 37 33 31 28 27 29 32 35 36 36 36 35 35 34 33 32 30 30
35 35 36 36 37 37 37 38 38 39 40 42 45 46 46 47 47 47 47 47 47 44 43 43 40 33 31 30 29 32 34 35 35 35 35 34 34 32 31 31 30 30
33 33 34 35 35 35 36 37 37 38 39 41 43 45 46 47 47 49 48 47 47 45 42 43 41 36 34 34 33 34 34 32 33 34 35 34 33 32 30 30 30 30
30 31 32 34 34 33 34 35 36 36 38 40 42 43 46 47 46 48 50 48 47 44 43 44 42 38 37 37 36 33 29 29 32 33 34 34 33 32 31 31 32 31
28 29 30 31 32 32 33 34 34 35 37 40 41 43 45 46 47 48 49 50 48 45 44 43 40 38 40 39 36 31 27 28 31 32 31 32 32 33 32 32 33 33
Wind_Direction
321 319 318 319 319 320 320 321 320 320 321 321 321 321 321 321 321 320 319 318 318 317 316 314 311 308 305 304 303 299 297 293 288 284 280 276 269 262 258 258 258 257
319 318 318 319 319 320 320 321 321 320 321 321 321 321 320 320 320 319 318 318 318 317 316 314 310 308 305 304 302 299 297 294 289 284 280 275 269 262 257 257 258 255
318 318 319 319 319 321 321 321 321 321 321 320 321 321 320 320 319 319 319 319 319 318 316 313 310 308 305 303 302 299 297 295 289 285 280 275 269 262 257 257 257 254
318 318 319 320 320 321 322 322 322 321 321 320 321 321 320 320 320 320 320 320 319 317 316 313 310 308 305 302 300 298 297 294 288 284 279 274 269 263 259 258 258 257
319 319 320 320 321 322 323 322 322 321 321 321 321 322 321 321 321 321 321 320 319 317 314 312 309 307 303 300 299 298 296 293 288 284 279 275 270 265 262 260 258 258
319 320 320 321 322 323 323 322 322 322 322 322 322 323 323 322 322 322 321 319 318 315 313 311 308 306 302 300 300 299 296 293 290 285 281 278 274 268 263 260 260 259
319 320 321 321 323 323 323 322 322 322 323 323 323 323 324 323 322 322 320 318 316 313 311 310 307 305 305 304 303 300 296 295 293 288 285 283 279 273 265 259 259 258
319 320 322 323 323 324 323 323 323 323 324 323 324 325 325 324 322 321 319 316 314 312 311 310 309 307 307 306 302 297 293 291 289 285 286 286 282 276 268 261 258 256
320 322 323 323 324 324 324 324 323 323 324 325 326 326 325 323 321 319 317 315 314 312 310 310 310 309 308 305 298 293 289 286 284 282 282 283 283 281 275 266 259 255
322 323 324 324 324 325 324 324 324 325 326 327 327 326 324 322 320 319 318 316 315 313 311 311 311 311 309 305 297 292 288 285 285 284 280 277 275 276 277 272 263 257
323 323 323 324 325 325 325 325 326 327 328 328 327 325 323 321 320 320 320 318 316 314 312 311 312 311 309 304 299 295 292 288 286 285 284 283 275 264 260 261 257 254
323 324 324 325 326 327 327 327 327 328 328 328 327 326 323 321 322 323 323 320 317 315 313 312 312 311 308 304 300 299 296 292 290 287 285 285 281 269 258 253 249 248
324 325 326 328 329 329 329 329 328 328 328 328 328 326 323 323 325 326 326 322 318 316 316 315 313 311 308 306 304 302 299 296 293 290 286 282 281 277 267 259 254 249
326 327 328 330 331 331 330 329 328 328 328 329 329 326 325 326 328 329 328 325 321 319 320 319 314 311 310 310 309 307 304 300 296 293 290 287 284 282 280 273 264 256
328 329 329 331 332 331 330 329 328 329 329 330 329 327 327 329 331 332 331 328 325 323 324 323 318 314 313 314 315 311 306 302 297 293 293 292 288 285 286 285 275 263
329 330 331 331 331 331 331 330 329 329 330 331 330 329 330 332 334 335 335 333 329 326 325 324 320 317 316 318 318 311 300 294 291 289 289 289 287 280 280 283 282 273
329 330 331 331 331 331 332 331 330 331 332 332 331 330 332 336 338 338 335 333 329 326 324 323 319 317 319 320 317 307 295 288 286 285 284 285 284 278 273 273 275 276
330 330 331 331 331 332 333 333 331 332 333 333 332 333 336 339 340 339 336 333 330 328 325 322 318 316 319 319 314 304 295 288 285 284 282 282 283 280 274 270 267 270
330 330 331 331 333 334 335 334 333 333 335 335 334 337 340 341 341 340 337 334 332 330 328 324 319 317 321 323 317 306 297 292 288 285 283 282 282 278 274 270 268 268
330 330 331 333 334 335 336 335 333 335 337 337 337 340 342 342 341 340 338 335 335 334 332 328 324 323 325 325 321 312 303 297 293 289 286 284 283 281 275 268 265 266
330 331 332 334 335 337 337 335 335 338 340 339 340 343 344 342 341 340 339 338 338 337 335 331 329 330 330 328 325 320 311 305 301 295 290 286 283 282 279 270 263 263
331 333 334 335 336 338 337 336 337 342 342 341 342 344 345 344 341 340 340 341 342 340 337 335 335 336 336 334 331 324 315 311 310 304 297 290 283 279 276 270 263 261
333 334 335 336 337 338 338 337 341 345 344 342 343 345 346 345 343 343 343 343 343 342 338 338 339 341 343 342 335 326 318 315 315 312 305 296 286 279 273 268 264 260
335 336 336 336 338 339 338 339 344 347 345 344 345 347 347 347 346 345 345 344 343 342 341 339 338 342 347 342 330 324 321 318 319 319 313 303 291 283 278 272 270 267
337 337 337 337 338 339 340 342 347 348 346 346 347 348 349 349 348 346 345 345 344 343 343 341 340 343 345 336 326 327 328 324 323 322 319 311 298 289 283 278 278 277
337 337 338 337 337 340 342 345 349 349 348 347 348 350 351 351 350 348 346 345 345 344 343 344 344 341 336 331 333 338 335 327 324 323 322 319 309 296 286 281 280 280